Вернуться в каталог

STARLINK-1464

АктивенСвязьVLEO
NORAD 45751·PAYLOAD·🇺🇸 United States

Запущен Jun 13, 2020 с Cape Canaveral Space Force Station

Loading…

Ближайшие Пролёты (ближайшие 24 часа)

TLE

СвежийSource: CelesTrak SupGP

Эпоха: Sep 14, 2026, 21:07 UTC

1 45751C 20038X   26257.88034722  .00050819  00000+0  38209-3 0  2575
2 45751  53.0434  10.8921 0001555  59.3822 327.0089 15.71858609    19

Отслеживайте STARLINK-1464 в реальном времени с AllMySat

Download on the App Store